Regional Weather Roundup
Issued by NWS Kansas City/Pleasant Hill, MO

Home | Current Version | Previous Version | Graphics & Text | Print | Product List | Glossary Off
Versions: 1 2 3 4 5 6 7 8 9 10 11 12 13 14 15 16 17 18 19 20 21 22 23 24 25 26 27 28 29 30 31 32 33 34 35 36 37 38 39 40 41 42 43 44 45 46 47 48 49 50

000
ASUS43 KEAX 052110
RWREAX

WEATHER ROUNDUP FOR EASTERN KANSAS AND NORTHWEST MISSOURI
NATIONAL WEATHER SERVICE KANSAS CITY/PLEASANT HILL MO
300 PM CST MON DEC 05 2016

KSZ040-057-103>105-MOZ028-029-037-043-052200-
...KANSAS CITY METROPOLITAN AREA...

CITY           SKY/WX    TMP DP  RH WIND       PRES   REMARKS
K.C. INTL      MOSUNNY   51  32  48 S18G24    29.73F
K.C. DOWNTOWN  SUNNY     53  35  50 S14       29.75F
LEES SUMMIT    SUNNY     50  35  56 SE12      29.76F
OLATHE - IXD   SUNNY     51  34  52 S13G22    29.74F
OLATHE - OJC   SUNNY     49  34  56 S13       29.74F
LAWRENCE       SUNNY     51  38  60 SE16      29.73F

$$

MOZ001>008-011>017-020>025-030>033-038>040-044>046-053-054-052200-
...NORTHERN AND CENTRAL MISSOURI...

CITY           SKY/WX    TMP DP  RH WIND       PRES   REMARKS
ST. JOSEPH     SUNNY     51  36  56 S15       29.74F
MOSBY          CLEAR     52  32  46 SE14      29.77F
WARRENSBURG    SUNNY     50  34  53 SE13      29.79F
WHITEMAN AFB   PTSUNNY   50  37  61 S12       29.78F
CLINTON        PTSUNNY   48  36  61 SE12      29.79F
SEDALIA        MOSUNNY   50  33  52 SE12      29.80F
WARSAW         NOT AVBL
CHILLICOTHE      N/A     50  36  58 S9        29.81F
KIRKSVILLE     CLOUDY    39  38  96 SE8       29.85F FOG     WCI  33

$$

MOZ041-047>049-056>058-063>065-088>090-097-052200-
...EASTERN AND SOUTHERN MISSOURI...

CITY           SKY/WX    TMP DP  RH WIND       PRES   REMARKS
ST. LOUIS INTL PTSUNNY   46  34  62 SE12      29.92F
SPIRIT OF STL  MOSUNNY   46  37  71 E10       29.91F
COLUMBIA       MOSUNNY   45  38  76 SE9       29.83F
JEFFERSON CITY MOSUNNY   47  37  68 SE9       29.84F
ROLLA          MOSUNNY   46  34  62 E12       29.83F
OSAGE BEACH    CLOUDY    47  35  63 SE6       29.83
SPRINGFIELD    CLOUDY    44  36  73 SE10      29.79F
BRANSON        PTSUNNY   43  37  81 MISG      29.80F
JOPLIN         CLOUDY    47  38  71 SE10      29.77F
WEST PLAINS    CLOUDY    46  35  65 SE7       29.84F

$$

IAZ060-094-KSZ022-034>040-054-083-096-NEZ052-066-093-052200-
...KANSAS...SOUTHEAST NEBRASKA AND IOWA...

CITY           SKY/WX    TMP DP  RH WIND       PRES   REMARKS
TOPEKA         SUNNY     51  37  58 S17       29.71F
MANHATTAN      SUNNY     56  32  40 SW18G24   29.66S
EMPORIA        SUNNY     52  36  54 S16       29.68F
CHANUTE        MOSUNNY   51  39  63 SE17      29.74S
WICHITA        SUNNY     54  37  52 S23       29.65F
OMAHA          PTSUNNY   52  36  54 S22G35    29.63F
LINCOLN        SUNNY     51  36  56 S21       29.62F
FALLS CITY     SUNNY     50  37  61 S12G22    29.71S
LAMONI         SUNNY     47  40  76 SE12G20   29.76F
DES MOINES     PTSUNNY   49  35  58 S18       29.76F

$$




USA.gov is the U.S. government's official web portal to all federal, state and local government web resources and services.